Starlink 31946

operational
NORAD ID: 59940 Int'l Des: 2024-106 Owner: SPXS Country: US Constellation: starlink
LEOCIRCULAR

About Starlink 31946

Description loading...

Live Position

Loading 3D Globe...

Upcoming Passes

Altitude History

Altitude vs Time

uPlot chart will show altitude changes over time

Two-Line Element Set

1 59940U 24106U 26033.67748384 .00000679 00000-0 34205-4 0 9991
2 59940 42.9997 170.6350 0000974 265.9526 94.1214 15.27581369 85793
Epoch: Feb 2, 2026 • Age: 21 hours

Current Status

Altitude 487.7 km
Velocity 7.62 km/s
Sub-Earth Point -21.70°S, 33.19°E
Launch Date Jun 1, 2024
Age 1.6 years
Type internet

Technical Details

Classification Payload
Mass 730.00 kg
Dry Mass 700.00 kg
Total Mass 730.00 kg
Length 0.30 m
Diameter 4.10 m
Span 29.00 m
Shape Box + pan
Manufacturer SPXS
Bus Type Starlink V2M
Phase Status In Orbit
Owner/State SPXS/US

Large Constellations

Loading constellations...